This is the latest recevied weather packets stored in our database for station/object K2YYD-2. If no packets are shown the sender has not sent any weather packets the latest 10 day(s).
| Time | Temp. | Humidity | Pressure | Rain* | Wind** | Luminosity | Snow |
|---|---|---|---|---|---|---|---|
| 1777471745 | 17.22° C | 50% | 1011.4 hPa | 0 mm | - | 697 W/m² | - |
| 1777471625 | 16.67° C | 50% | 1011.4 hPa | 0 mm | - | 583 W/m² | - |
| 1777471505 | 16.67° C | 51% | 1011.3 hPa | 0 mm | - | 599 W/m² | - |
| 1777471385 | 16.67° C | 50% | 1011.3 hPa | 0 mm | - | 469 W/m² | - |
| 1777471265 | 16.67° C | 51% | 1011.3 hPa | 0 mm | - | 639 W/m² | - |
| 1777471145 | 16.67° C | 50% | 1011.4 hPa | 0 mm | - | 680 W/m² | - |
| 1777471025 | 16.67° C | 51% | 1011.6 hPa | 0 mm | - | 677 W/m² | - |
| 1777470905 | 16.67° C | 51% | 1011.6 hPa | 0 mm | - | 569 W/m² | - |
| 1777470785 | 16.11° C | 52% | 1011.6 hPa | 0 mm | - | 556 W/m² | - |
| 1777470662 | 16.67° C | 53% | 1011.6 hPa | 0 mm | - | 577 W/m² | - |
| 1777470539 | 16.67° C | 52% | 1011.7 hPa | 0 mm | - | 436 W/m² | - |
| 1777470416 | 17.22° C | 48% | 1011.7 hPa | 0 mm | - | 539 W/m² | - |
| 1777470297 | 17.22° C | 48% | 1011.7 hPa | 0 mm | - | 544 W/m² | - |
| 1777470176 | 17.22° C | 48% | 1011.7 hPa | 0 mm | - | 547 W/m² | - |
| 1777470057 | 17.22° C | 48% | 1011.6 hPa | 0 mm | - | 429 W/m² | - |
| 1777469936 | 16.67° C | 49% | 1011.5 hPa | 0 mm | - | 465 W/m² | - |
| 1777469816 | 16.67° C | 50% | 1011.5 hPa | 0 mm | - | 295 W/m² | - |
| 1777469698 | 16.67° C | 51% | 1011.5 hPa | 0 mm | - | 520 W/m² | - |
| 1777469575 | 17.22° C | 50% | 1011.5 hPa | 0 mm | - | 382 W/m² | - |
| 1777469453 | 17.22° C | 52% | 1011.6 hPa | 0 mm | - | 232 W/m² | - |
| 1777469330 | 17.22° C | 52% | 1011.5 hPa | 0 mm | - | 371 W/m² | - |
| 1777469207 | 17.22° C | 53% | 1011.6 hPa | 0 mm | - | 284 W/m² | - |
| 1777469084 | 17.22° C | 51% | 1011.6 hPa | 0 mm | - | 281 W/m² | - |
| 1777468961 | 16.67° C | 51% | 1011.5 hPa | 0 mm | - | 319 W/m² | - |
| 1777468841 | 16.67° C | 53% | 1011.5 hPa | 0 mm | - | 287 W/m² | - |
* Rain latest hour (hover to see other rain measurements)
** Current wind speed in m/s (hover to see current wind gust speed)